Regional Weather Roundup
Issued by NWS Memphis, TN

Home | Current Version | Previous Version | Text Only | Print | Product List | Glossary On
Versions: 1 2 3 4 5 6 7 8 9 10 11 12 13 14 15 16 17 18 19 20 21 22 23 24 25 26 27 28 29 30 31 32 33 34 35 36 37 38 39 40 41 42 43 44 45 46 47 48 49 50
000
ASUS44 KMEG 010610
RWRMEG
MEMPHIS CWA HOURLY WEATHER ROUNDUP
NATIONAL WEATHER SERVICE MEMPHIS TN
100 AM CDT WED OCT 01 2014

...WEST TENNESSEE...

CITY           SKY/WX    TMP DP  RH WIND       PRES   REMARKS
MEMPHIS INTL   PTCLDY    74  61  63 CALM      29.88F
6HR MIN TEMP:  72; 6HR MAX TEMP:  82;

NWS MEMPHIS      N/A     67 N/A N/A MISG        N/A
JACKSON        CLEAR     62  59  90 CALM      29.90F
6HR MIN TEMP:  61; 6HR MAX TEMP:  72;

LEXINGTON      CLEAR     59  57  94 CALM      29.91S
SAVANNAH       CLEAR     59  59 100 CALM      29.92S
DYERSBURG      CLEAR     64  54  68 CALM      29.91S
6HR MIN TEMP:  63; 6HR MAX TEMP:  73;

UNION CITY     CLEAR     57  57 100 CALM      29.90S
PARIS          CLEAR     57  54  88 CALM      29.92F
HUNTINGDON     CLEAR     60  58  93 CALM      29.92S


...EASTERN ARKANSAS...

CITY           SKY/WX    TMP DP  RH WIND       PRES   REMARKS
JONESBORO      CLEAR     64  61  90 NE3       29.88S
6HR MIN TEMP:  63; 6HR MAX TEMP:  75;

WEST MEMPHIS   CLEAR     70  64  81 SE3       29.86F
6HR MIN TEMP:  68; 6HR MAX TEMP:  75;

BATESVILLE     CLEAR     63  52  67 CALM      29.88S
6HR MIN TEMP:  63; 6HR MAX TEMP:  81;

NEWPORT        CLEAR     65  60  83 E3        29.88S
6HR MIN TEMP:  65; 6HR MAX TEMP:  81;

WALNUT RIDGE   CLEAR     64  57  77 E5        29.87R
6HR MIN TEMP:  64; 6HR MAX TEMP:  73;

BLYTHEVILLE    PTCLDY    66  62  87 SE5       29.89S
6HR MIN TEMP:  66; 6HR MAX TEMP:  79;

SEARCY           N/A     62  58  86 CALM      29.88S
6HR MIN TEMP:  62; 6HR MAX TEMP:  74;

STUTTGART      CLEAR    N/A N/A N/A E6        29.86F
PINE BLUFF     PTCLDY    65  61  87 CALM      29.85F
6HR MIN TEMP:  65; 6HR MAX TEMP:  81;

MONTICELLO     PTCLDY    68  62  81 CALM      29.85F
6HR MIN TEMP:  68; 6HR MAX TEMP:  79;



...NORTH MISSISSIPPI...

CITY           SKY/WX    TMP DP  RH WIND       PRES   REMARKS
TUPELO         CLEAR     65  61  87 CALM      29.90S
6HR MIN TEMP:  64; 6HR MAX TEMP:  77;

OXFORD         CLEAR     64  61  88 SE6       29.90F
OLIVE BRANCH   CLEAR     64  64 100 CALM      29.89F
TUNICA         CLEAR     66  61  82 CALM      29.88F
CLARKSDALE     CLEAR     68  64  88 CALM      29.88S
CORINTH          N/A     61  59  94 CALM      29.90F
GRENADA        CLEAR     64  64 100 CALM      29.88F
GREENWOOD      CLEAR     67  62  84 CALM      29.87F
6HR MIN TEMP:  67; 6HR MAX TEMP:  78;

COLUMBUS       CLEAR     62  62 100 CALM      29.90S
6HR MIN TEMP:  62; 6HR MAX TEMP:  75;

STARKVILLE     FAIR      63  61  94 CALM      29.91R
GOLDEN TRIANGL CLEAR     64  57  77 CALM      29.90S
6HR MIN TEMP:  63; 6HR MAX TEMP:  79;



...SOUTHEAST MISSOURI...

CITY           SKY/WX    TMP DP  RH WIND       PRES   REMARKS
WEST PLAINS    CLEAR     56  52  86 CALM      29.92S
6HR MIN TEMP:  56; 6HR MAX TEMP:  73;

POPLAR BLUFF   CLEAR     60  56  86 CALM      29.88S
6HR MIN TEMP:  59; 6HR MAX TEMP:  74;

CAPE GIRARDEAU CLEAR     57  55  93 E3        29.90S
6HR MIN TEMP:  56; 6HR MAX TEMP:  73;



...NORTHWEST ALABAMA...

CITY           SKY/WX    TMP DP  RH WIND       PRES   REMARKS
MUSCLE SHOALS  CLEAR     63  59  87 CALM      29.93S
6HR MIN TEMP:  63; 6HR MAX TEMP:  75;



...MIDDLE TENNESSEE...

CITY           SKY/WX    TMP DP  RH WIND       PRES   REMARKS
NASHVILLE      PTCLDY    62  56  80 CALM      29.94R
6HR MIN TEMP:  62; 6HR MAX TEMP:  78;

CLARKSVILLE    CLEAR     59  57  93 CALM      29.92S
6HR MIN TEMP:  59; 6HR MAX TEMP:  77;

COLUMBIA       CLEAR    N/A N/A N/A CALM      29.92S
LEWISBURG      PTCLDY    55  53  93 CALM      29.93S


...WESTERN KENTUCKY...

CITY           SKY/WX    TMP DP  RH WIND       PRES   REMARKS
PADUCAH        CLEAR     59  56  89 CALM      29.90S
6HR MIN TEMP:  57; 6HR MAX TEMP:  70;

FORT CAMPBELL  CLEAR     65  56  72 CALM      29.92S
6HR MIN TEMP:  62; 6HR MAX TEMP:  76;



...CENTRAL ARKANSAS...

CITY           SKY/WX    TMP DP  RH WIND       PRES   REMARKS
LITTLE ROCK    PTCLDY    70  62  76 CALM      29.86S
6HR MIN TEMP:  69; 6HR MAX TEMP:  80;



SKY/WX REPORTED AS FAIR MEANS FEW OR NO CLOUDS BELOW
12 THOUSAND FEET.




USA.gov is the U.S. government's official web portal to all federal, state and local government web resources and services.